TimeCDT,TemperatureF,Dew PointF,Humidity,Sea Level PressureIn,VisibilityMPH,Wind Direction,Wind SpeedMPH,Gust SpeedMPH,PrecipitationIn,Events,Conditions,WindDirDegrees,DateUTC
12:15 AM,33.8,19.4,56,30.03,10.0,Calm,Calm,-,N/A,,Clear,0,2013-03-12 05:15:00
12:55 AM,32.0,19.4,60,30.04,10.0,Calm,Calm,-,N/A,,Clear,0,2013-03-12 05:55:00
1:15 AM,32.0,19.4,60,30.05,10.0,West,3.5,-,N/A,,Clear,280,2013-03-12 06:15:00
1:35 AM,32.0,19.4,60,30.04,10.0,Calm,Calm,-,N/A,,Clear,0,2013-03-12 06:35:00
1:55 AM,32.0,17.6,55,30.03,10.0,Calm,Calm,-,N/A,,Clear,0,2013-03-12 06:55:00
2:15 AM,32.0,17.6,55,30.05,10.0,SW,4.6,-,N/A,,Clear,230,2013-03-12 07:15:00
2:35 AM,32.0,17.6,55,30.06,10.0,WSW,3.5,-,N/A,,Clear,250,2013-03-12 07:35:00
2:55 AM,32.0,17.6,55,30.06,10.0,Calm,Calm,-,N/A,,Clear,0,2013-03-12 07:55:00
3:15 AM,32.0,17.6,55,30.07,10.0,Calm,Calm,-,N/A,,Clear,0,2013-03-12 08:15:00
3:35 AM,32.0,19.4,60,30.06,10.0,Calm,Calm,-,N/A,,Partly Cloudy,0,2013-03-12 08:35:00
3:55 AM,32.0,19.4,60,30.04,10.0,Calm,Calm,-,N/A,,Mostly Cloudy,0,2013-03-12 08:55:00
4:15 AM,32.0,17.6,55,30.04,10.0,Calm,Calm,-,N/A,,Mostly Cloudy,0,2013-03-12 09:15:00
4:35 AM,30.2,19.4,64,30.04,10.0,Calm,Calm,-,N/A,,Mostly Cloudy,0,2013-03-12 09:35:00
4:55 AM,32.0,17.6,55,30.05,10.0,Calm,Calm,-,N/A,,Scattered Clouds,0,2013-03-12 09:55:00
5:15 AM,32.0,19.4,60,30.07,10.0,Calm,Calm,-,N/A,,Mostly Cloudy,0,2013-03-12 10:15:00
5:35 AM,32.0,19.4,60,30.07,10.0,Calm,Calm,-,N/A,,Overcast,0,2013-03-12 10:35:00
5:55 AM,33.8,19.4,56,30.09,10.0,Calm,Calm,-,N/A,,Overcast,0,2013-03-12 10:55:00
6:15 AM,33.8,19.4,56,30.11,10.0,Calm,Calm,-,N/A,,Overcast,0,2013-03-12 11:15:00
6:50 AM,33.8,17.6,52,30.11,10.0,West,8.1,-,N/A,,Mostly Cloudy,260,2013-03-12 11:50:00
7:48 AM,33.8,17.6,52,30.13,10.0,WSW,4.6,-,N/A,,Mostly Cloudy,250,2013-03-12 12:48:00
8:47 AM,37.4,17.6,45,30.15,10.0,WSW,5.8,-,N/A,,Overcast,250,2013-03-12 13:47:00
9:47 AM,41.0,17.6,39,30.18,10.0,West,5.8,-,N/A,,Overcast,270,2013-03-12 14:47:00
10:52 AM,42.8,17.6,36,30.19,10.0,WNW,9.2,-,N/A,,Mostly Cloudy,300,2013-03-12 15:52:00
11:55 AM,46.4,23.0,40,30.20,10.0,NW,9.2,-,N/A,,Mostly Cloudy,310,2013-03-12 16:55:00
12:47 PM,48.2,23.0,37,30.20,10.0,NW,8.1,-,N/A,,Scattered Clouds,320,2013-03-12 17:47:00
1:50 PM,50.0,21.2,32,30.19,10.0,NW,9.2,-,N/A,,Scattered Clouds,310,2013-03-12 18:50:00
2:55 PM,51.8,19.4,28,30.16,10.0,WNW,9.2,19.6,N/A,,Scattered Clouds,290,2013-03-12 19:55:00
3:50 PM,53.6,23.0,30,30.16,10.0,WNW,11.5,21.9,N/A,,Scattered Clouds,290,2013-03-12 20:50:00
4:48 PM,53.6,23.0,30,30.16,10.0,NW,16.1,21.9,N/A,,Scattered Clouds,310,2013-03-12 21:48:00
5:45 PM,51.8,24.8,35,30.16,10.0,WNW,11.5,19.6,N/A,,Scattered Clouds,300,2013-03-12 22:45:00
6:58 PM,48.2,24.8,40,30.18,10.0,NW,10.4,-,N/A,,Scattered Clouds,310,2013-03-12 23:58:00
7:55 PM,46.4,26.6,46,30.20,10.0,NW,11.5,-,N/A,,Overcast,310,2013-03-13 00:55:00
8:45 PM,44.6,24.8,46,30.23,10.0,NW,17.3,23.0,N/A,,Mostly Cloudy,310,2013-03-13 01:45:00
8:55 PM,44.6,23.0,43,30.23,10.0,NW,16.1,24.2,N/A,,Mostly Cloudy,310,2013-03-13 01:55:00
9:15 PM,44.6,23.0,43,30.24,10.0,NW,10.4,-,N/A,,Clear,310,2013-03-13 02:15:00
9:35 PM,42.8,21.2,42,30.25,10.0,NW,13.8,19.6,N/A,,Clear,310,2013-03-13 02:35:00
9:55 PM,41.0,19.4,42,30.26,10.0,NW,12.7,18.4,N/A,,Clear,310,2013-03-13 02:55:00
10:35 PM,41.0,19.4,42,30.28,10.0,NW,12.7,-,N/A,,Clear,310,2013-03-13 03:35:00
10:55 PM,39.2,19.4,45,30.29,10.0,NW,10.4,19.6,N/A,,Clear,310,2013-03-13 03:55:00
11:15 PM,39.2,19.4,45,30.30,10.0,NW,10.4,18.4,N/A,,Clear,310,2013-03-13 04:15:00
11:35 PM,37.4,19.4,48,30.30,10.0,NW,9.2,-,N/A,,Clear,320,2013-03-13 04:35:00
11:55 PM,37.4,19.4,48,30.31,10.0,NW,10.4,-,N/A,,Clear,310,2013-03-13 04:55:00